Погода в Ереване

Погода в Ереване : погода сейчас, прогноз погоды и архив. Всё, что Вы хотите узнать о погоде в Ереване!

Поиск расширенной информации на нашем сайте:

Другие новости

Новости СМИ2

Главная страница сайта

Новости сайта

03.07.2017

Напоминаем, что на нашем специализированном сайте Метеоцентр.Азия вы можете получить высокодетализированные автоматические прогнозы погоды по пунктам России, СНГ и мира в авиационном формате (включающие направление и скорость ветра, видимость, явления погоды, количество и форму облачности, нижнюю и верхнюю границу облачности).

Рекомендуем: Порекомендовали элькарнитин цена и я похудела на 10 кг!

Погода в Ереване - сегодня

Время (UTC), дата Ветер
(°,м/с) 
Видим.   Явления Облачность Т
(°С)
Тd
(°С)
f(%) Тe
(°С)
Pmin
(гПа)
dP
(гПа)
Po
(мм)
O2
(г/м3)
Тmin Tmax R s Состояние
почвы
00 17.04.18 130 (ЮВ) 20000 м    ясно 
+7.1 -2.2 52 +7  1020.8  0.3  691  271           
03 17.04.18 090 (В) 20000 м    1/0 средняя 
[Ac lent]
+6 -1.2 60 +7  1022.1  0.9  691  273           
06 17.04.18 150 (ЮВ) 20000 м    ясно 
+12.3 -1.9 37 +12  1020.4  0.6  692  267  +4.5         
09 17.04.18 210 (ЮЗ) 20000 м    1/1 1000 м 
[Sc]
+16.6 -1.7 29 +17  1017.8  -1.1  691  263           
12 17.04.18 170 (Ю) 20000 м    1/1 1000 м 
[Sc]
+18.5 -2.5 24 +20  1014.9  -2.1  689  260           
15 17.04.18 090 (В) 20000 м    1/1 1000 м 
[Sc]
+18.4 +5.5 43 +20  1014.1  -0.8  689  259           
18 17.04.18 040 (СВ) 20000 м    ясно 
+13.4 +0.9 42 +13  1017.4  1.6  690  265    +19.6       
21 17.04.18 040 (СВ) 20000 м    ясно 
+12 -2.5 36 +11  1019.2  1.1  691  267           
00 18.04.18 060 (СВ) 20000 м    ясно 
+8.4 -1.7 49 +8  1021.4  0.8  692  270           
03 18.04.18 060 (СВ) 20000 м    ясно 
+6.6 -1.4 57 +6  1023.6  1.4  693  272           
06 18.04.18 140 (ЮВ) 20000 м    ясно 
+14.2 +2.5 45 +15  1021.8  0.9  693  265  +5.4         
09 18.04.18 140 (ЮВ) 20000 м    8/1 1000 м верхняя 
[Cu hum|Ci fib]
+19.4 +0.9 29 +20  1018.6  -1.3  692  260           
12 18.04.18 120 (ЮВ) 20000 м    8/1 1000 м верхняя 
[Cu hum|Ci fib]
+22.1 +0 23 +22  1015.8  -1.7  691  257           
15 18.04.18 тихо ()   20000 м    9/0 средняя, верхняя 
[Ac trans|Ci fib]
+19.8 +0.9 28 +20  1015.9  -0.6  691  259           
18 18.04.18 050 (СВ) 20000 м    10/0 средняя, верхняя 
[Ac trans|Ci fib]
+12.6 +1.3 46 +12  1018.6  0.2  691  266    +22.5       
21 18.04.18 050 (СВ) 20000 м    10/0 средняя, верхняя 
[Ac trans|Ci fib]
+13.6 +3.4 50 +13  1017.9  -0.3  690  264           
00 19.04.18 040 (СВ) 20000 м    6/0 средняя, верхняя 
[Ac trans|Ci fib]
+9.8 +3 63 +10  1018.3  -0.9  690  268           
03 19.04.18 120 (ЮВ) 20000 м    1/0 средняя 
[Ac trans]
+9.1 +3 66 +10  1017.8  -0.6  689  268           
06 19.04.18 150 (ЮВ) 20000 м    1/0 средняя 
[Ac trans]
+16.7 +2.3 38 +18  1014.2  -0.9  689  261  +8.2         
09 19.04.18 140 (ЮВ) 20000 м    6/1 1000 м средняя, верхняя 
[Cu hum|Ac cast|Ci fib]
+21.6 +0.9 25 +22  1009.2  686  256           
12 19.04.18 230 (ЮЗ) 20000 м    9/5 1000 м кучево-дожд., средняя 
[Cb cap|Ac As]
+22.7 +0.6 23 +23  1005.5  -3.1  684  254           
15 19.04.18 360 (С) 20000 м  слаб. ливневой дождь{гроза}  10/5 1000 м кучево-дожд., средняя 
[Cb cap|Ac As]
+18.2 +6.8 47 +18  1006.8  684  257           
18 19.04.18 тихо ()   20000 м  {гроза, ливн. осадки}  10/10 1000 м 
+14.2 +8 66 +15  1010  97  685  261    +24.1  0.0     
21 19.04.18 080 (В) 20000 м    3/0 средняя 
[Ac trans]
+11.2 +8.1 81 +11  1010.2  -0.8  685  263           
00 20.04.18 040 (СВ) 20000 м  {ливн. осадки}  8/0 средняя 
[Ac trans]
+9.9 +7.4 84 +9  1008.5  -1.9  683  264           
Время (UTC), дата Ветер
(°,м/с) 
Видим.   Явления Облачность Т
(°С)
Тd
(°С)
f(%) Тe
(°С)
Pmin
(гПа)
dP
(гПа)
Po
(мм)
O2
(г/м3)
Тmin Tmax R s Состояние
почвы

Для получения пояснительной информации подведите курсор к названию столбца.

ПОГОДА в Ереване - архив

Всё, что Вы хотите узнать о погоде в Ереване - удобно и подробно!

Выберите нужную дату (начиная с 1 января 2015* года) и нажмите кнопку "Найти".
Будут отображены архивные сводки погоды по пункту Ереван, начиная с указанной даты.


Отображать данные в формате CSV (для использования в таблицах Excel)


Внимание! Наш архив погоды предназначен исключительно для личного некоммерческого использования в познавательных целях. Если Вам необходимы официальные справки о состоянии погоды (для производственных, юридических, коммерческих и т.п. целей), обращайтесь в органы Росгидромета.

*Примечание: данная дата относится к архиву по метеостанциям СССР (Россия, СНГ, Балтия).
Архив по метеостанциям Зарубежной Европы и Азии (кроме Китая) хранится 10 дней, по другим регионам земного шара (Китай, Африка, Америка, Австралия, Океания) - 1 день.

Ереван - район местоположения метеостанции


Название, широта, долгота, высота метеостанции:
Ереван (Звартноц) 40.1°ш. 44.4°д. 865 м над ур. моря [Армения]

Дополнительная информация

В oтличие oт бoльшинства пoгoдных сайтoв мы публикуем пoдрoбную метеoинфoрмацию в детальнoм прoфессиoнальнoм фoрмате.

Характеристики температуры и влажнoсти вoздуха измеряются на высoте 2 м в тени вдали oт зданий и деревьев.
Скoрoсть ветра измеряется на высoте 10 м (на урoвне рoста челoвека скoрoсть ветра ниже в 1.5-2 раза). Если метеoстанция нахoдится в гoрoде или в лесу, тo скoрoсть ветра занижена на 2-4 м/с пo сравнению с oткрытым местoм. Скoрoсть ветра над акватoриями крупных рек и oзёр, а также на вершинах хoлмoв на 2-5 м/с выше, чем в oбычных услoвиях.
Атмoсфернoе давление в разных тoчках местнoсти мoжет значительнo oтличаться oт давления на метеoстанции, в зависимoсти oт услoвий рельефа (при пoдъёме на 10 м давление пoнижается примернo на 1 мм рт.ст.).